QPF
0.02 0.01 0.01 0.01 0.01 0.01 0.00 0.00 0.00 0.00 0.00 0.00 0.00 0.00 0.00 0.00 0.00 0.00 0.00 0.00 0.00 0.00 0.01 0.01 0.02 0.02 0.02 0.02 0.02 0.02 0.02 0.02 0.02 0.02 0.02 0.01 0.01 0.00 0.00 0.00 0.00 0.00 0.00 0.00 0.00 0.01 0.01 0.01 0.00
0.03 0.02 0.02 0.02 0.01 0.00 0.00 0.00 0.00 0.00 0.00 0.00 0.00 0.00 0.00 0.00 0.00 0.00 0.00 0.01 0.00 0.01 0.01 0.02 0.03 0.03 0.03 0.03 0.02 0.03 0.03 0.03 0.03 0.03 0.02 0.01 0.01 0.00 0.00 0.00 0.00 0.00 0.00 0.00 0.01 0.01 0.01 0.00 0.00
0.04 0.03 0.02 0.02 0.01 0.00 0.00 0.00 0.00 0.00 0.00 0.00 0.00 0.00 0.00 0.00 0.00 0.00 0.01 0.01 0.01 0.01 0.02 0.03 0.04 0.04 0.04 0.04 0.03 0.03 0.04 0.04 0.04 0.03 0.02 0.02 0.01 0.00 0.00 0.00 0.00 0.00 0.00 0.00 0.00 0.01 0.01 0.00 0.00
0.05 0.03 0.02 0.01 0.00 0.00 0.00 0.00 0.00 0.00 0.00 0.00 0.00 0.00 0.00 0.00 0.00 0.00 0.01 0.01 0.01 0.02 0.02 0.04 0.04 0.05 0.05 0.04 0.04 0.04 0.05 0.04 0.04 0.03 0.03 0.02 0.02 0.01 0.01 0.00 0.00 0.00 0.00 0.00 0.00 0.00 0.00 0.00 0.00
0.08 0.04 0.02 0.01 0.00 0.00 0.00 0.00 0.00 0.00 0.00 0.00 0.00 0.00 0.00 0.00 0.00 0.00 0.00 0.01 0.01 0.02 0.03 0.04 0.05 0.06 0.08 0.07 0.06 0.06 0.06 0.06 0.05 0.04 0.02 0.02 0.02 0.01 0.01 0.01 0.00 0.00 0.00 0.00 0.00 0.00 0.00 0.00 0.00
0.09 0.05 0.02 0.01 0.00 0.00 0.00 0.00 0.00 0.00 0.00 0.00 0.00 0.00 0.00 0.01 0.00 0.00 0.00 0.01 0.01 0.01 0.02 0.04 0.06 0.08 0.09 0.10 0.08 0.07 0.07 0.07 0.07 0.05 0.03 0.03 0.03 0.01 0.01 0.01 0.00 0.00 0.00 0.00 0.00 0.00 0.00 0.00 0.00
0.13 0.06 0.02 0.00 0.00 0.00 0.00 0.00 0.00 0.00 0.00 0.00 0.00 0.00 0.01 0.01 0.01 0.01 0.01 0.01 0.01 0.02 0.02 0.03 0.04 0.07 0.10 0.12 0.11 0.09 0.07 0.07 0.06 0.05 0.04 0.03 0.03 0.02 0.02 0.01 0.01 0.00 0.00 0.00 0.00 0.00 0.00 0.00 0.00
0.13 0.08 0.03 0.01 0.00 0.00 0.00 0.00 0.00 0.00 0.00 0.00 0.00 0.00 0.01 0.01 0.01 0.01 0.01 0.01 0.01 0.02 0.03 0.03 0.04 0.05 0.08 0.12 0.13 0.12 0.10 0.08 0.07 0.05 0.03 0.03 0.03 0.03 0.03 0.02 0.01 0.01 0.01 0.01 0.01 0.00 0.00 0.00 0.00
0.13 0.10 0.04 0.01 0.00 0.00 0.00 0.00 0.00 0.00 0.00 0.01 0.01 0.01 0.01 0.01 0.01 0.02 0.02 0.02 0.02 0.03 0.04 0.05 0.04 0.04 0.05 0.07 0.12 0.15 0.12 0.11 0.09 0.06 0.04 0.03 0.03 0.03 0.03 0.02 0.02 0.02 0.01 0.01 0.01 0.01 0.00 0.00 0.00
0.12 0.10 0.04 0.01 0.01 0.00 0.00 0.01 0.01 0.01 0.01 0.01 0.01 0.01 0.02 0.02 0.02 0.01 0.01 0.02 0.02 0.03 0.05 0.05 0.04 0.03 0.04 0.04 0.08 0.15 0.15 0.12 0.11 0.07 0.05 0.03 0.03 0.02 0.02 0.01 0.01 0.02 0.02 0.01 0.01 0.01 0.01 0.00 0.00
0.09 0.07 0.03 0.01 0.01 0.01 0.01 0.01 0.01 0.01 0.01 0.01 0.01 0.01 0.02 0.02 0.02 0.02 0.02 0.02 0.02 0.03 0.04 0.06 0.04 0.04 0.03 0.04 0.04 0.09 0.14 0.13 0.12 0.12 0.07 0.04 0.03 0.02 0.02 0.02 0.01 0.02 0.02 0.02 0.01 0.01 0.01 0.01 0.00
0.07 0.05 0.03 0.02 0.02 0.02 0.01 0.01 0.01 0.01 0.01 0.01 0.01 0.02 0.02 0.02 0.02 0.02 0.03 0.03 0.03 0.04 0.04 0.05 0.05 0.04 0.03 0.04 0.04 0.04 0.09 0.13 0.13 0.14 0.12 0.06 0.04 0.03 0.03 0.03 0.02 0.02 0.02 0.02 0.01 0.01 0.01 0.01 0.00
0.07 0.05 0.03 0.02 0.02 0.02 0.01 0.01 0.01 0.01 0.01 0.01 0.01 0.03 0.03 0.02 0.03 0.03 0.04 0.04 0.04 0.04 0.05 0.05 0.05 0.05 0.04 0.05 0.05 0.04 0.05 0.09 0.12 0.13 0.13 0.10 0.06 0.04 0.04 0.03 0.02 0.01 0.01 0.01 0.01 0.01 0.01 0.01 0.01
0.06 0.04 0.02 0.02 0.02 0.02 0.02 0.01 0.01 0.00 0.00 0.01 0.01 0.03 0.04 0.04 0.03 0.03 0.04 0.05 0.05 0.05 0.05 0.05 0.05 0.05 0.05 0.05 0.06 0.06 0.06 0.07 0.11 0.13 0.13 0.12 0.09 0.05 0.03 0.04 0.03 0.02 0.01 0.02 0.02 0.02 0.02 0.02 0.01
0.06 0.05 0.02 0.02 0.02 0.02 0.02 0.01 0.01 0.00 0.01 0.01 0.01 0.03 0.04 0.05 0.03 0.03 0.04 0.05 0.06 0.07 0.06 0.05 0.06 0.07 0.05 0.04 0.07 0.07 0.07 0.07 0.09 0.11 0.11 0.10 0.10 0.08 0.04 0.04 0.04 0.04 0.03 0.02 0.02 0.03 0.03 0.03 0.03
0.08 0.07 0.04 0.03 0.02 0.02 0.02 0.02 0.01 0.01 0.01 0.01 0.01 0.04 0.05 0.05 0.04 0.04 0.04 0.05 0.06 0.08 0.09 0.08 0.08 0.08 0.06 0.04 0.05 0.07 0.08 0.09 0.09 0.08 0.08 0.08 0.08 0.09 0.07 0.05 0.05 0.05 0.05 0.03 0.02 0.02 0.02 0.02 0.02
0.08 0.08 0.04 0.02 0.01 0.01 0.01 0.01 0.01 0.01 0.01 0.01 0.01 0.04 0.05 0.03 0.03 0.04 0.05 0.06 0.08 0.08 0.10 0.10 0.09 0.08 0.07 0.07 0.05 0.06 0.09 0.08 0.11 0.12 0.09 0.08 0.07 0.08 0.08 0.07 0.06 0.06 0.07 0.06 0.03 0.02 0.02 0.02 0.02
0.06 0.07 0.03 0.02 0.01 0.02 0.01 0.01 0.01 0.02 0.02 0.01 0.01 0.04 0.05 0.03 0.02 0.03 0.03 0.06 0.09 0.09 0.10 0.12 0.11 0.10 0.07 0.05 0.05 0.05 0.08 0.08 0.08 0.13 0.13 0.12 0.11 0.08 0.09 0.09 0.09 0.08 0.08 0.10 0.08 0.03 0.01 0.01 0.01
0.05 0.05 0.03 0.02 0.02 0.03 0.02 0.02 0.02 0.03 0.03 0.02 0.01 0.03 0.05 0.04 0.03 0.03 0.04 0.05 0.09 0.09 0.07 0.08 0.10 0.09 0.07 0.05 0.04 0.03 0.05 0.09 0.08 0.08 0.14 0.17 0.17 0.16 0.15 0.12 0.10 0.10 0.09 0.08 0.08 0.05 0.02 0.01 0.01
0.04 0.04 0.02 0.01 0.02 0.03 0.03 0.03 0.02 0.02 0.02 0.02 0.02 0.03 0.06 0.05 0.04 0.04 0.04 0.05 0.06 0.07 0.05 0.05 0.08 0.07 0.06 0.05 0.04 0.04 0.05 0.08 0.09 0.09 0.10 0.14 0.16 0.17 0.20 0.19 0.14 0.11 0.12 0.11 0.08 0.05 0.03 0.02 0.01
0.02 0.03 0.03 0.02 0.03 0.05 0.05 0.04 0.03 0.02 0.01 0.02 0.03 0.04 0.06 0.06 0.04 0.03 0.03 0.04 0.04 0.06 0.05 0.04 0.05 0.06 0.06 0.06 0.05 0.05 0.06 0.05 0.07 0.07 0.09 0.09 0.11 0.13 0.14 0.14 0.13 0.15 0.14 0.13 0.11 0.08 0.05 0.03 0.02
0.01 0.01 0.03 0.02 0.03 0.04 0.05 0.06 0.03 0.02 0.01 0.02 0.02 0.03 0.05 0.05 0.04 0.02 0.02 0.03 0.04 0.05 0.05 0.04 0.05 0.06 0.06 0.06 0.05 0.05 0.05 0.05 0.05 0.07 0.08 0.09 0.10 0.11 0.10 0.10 0.10 0.10 0.15 0.16 0.14 0.11 0.08 0.05 0.04
0.01 0.01 0.02 0.03 0.03 0.04 0.04 0.05 0.03 0.01 0.01 0.01 0.02 0.02 0.03 0.04 0.04 0.04 0.03 0.03 0.04 0.05 0.04 0.04 0.05 0.06 0.05 0.05 0.05 0.05 0.06 0.07 0.07 0.08 0.08 0.09 0.11 0.12 0.13 0.10 0.09 0.10 0.09 0.10 0.11 0.12 0.11 0.08 0.07
0.01 0.02 0.04 0.04 0.04 0.05 0.03 0.02 0.02 0.01 0.02 0.01 0.01 0.02 0.03 0.04 0.04 0.05 0.04 0.03 0.03 0.04 0.04 0.04 0.05 0.05 0.05 0.04 0.04 0.04 0.04 0.05 0.08 0.10 0.11 0.11 0.12 0.13 0.14 0.15 0.12 0.11 0.11 0.09 0.08 0.08 0.09 0.09 0.08
0.02 0.03 0.06 0.07 0.07 0.05 0.03 0.02 0.02 0.01 0.02 0.02 0.01 0.02 0.02 0.03 0.04 0.04 0.04 0.04 0.03 0.04 0.04 0.04 0.04 0.04 0.04 0.04 0.04 0.04 0.04 0.05 0.06 0.10 0.12 0.12 0.12 0.12 0.11 0.11 0.11 0.11 0.12 0.12 0.09 0.07 0.07 0.07 0.06
0.02 0.03 0.04 0.04 0.03 0.02 0.01 0.02 0.02 0.02 0.02 0.02 0.02 0.02 0.02 0.02 0.02 0.02 0.03 0.03 0.03 0.04 0.04 0.03 0.02 0.03 0.03 0.03 0.03 0.05 0.05 0.05 0.05 0.06 0.11 0.12 0.11 0.10 0.11 0.10 0.07 0.06 0.08 0.09 0.08 0.06 0.05 0.05 0.04
0.02 0.03 0.02 0.03 0.02 0.02 0.02 0.02 0.01 0.01 0.01 0.02 0.02 0.02 0.02 0.02 0.01 0.02 0.02 0.03 0.02 0.02 0.02 0.02 0.02 0.02 0.01 0.01 0.01 0.03 0.04 0.04 0.04 0.04 0.07 0.09 0.11 0.11 0.11 0.12 0.10 0.06 0.06 0.06 0.06 0.05 0.04 0.03 0.03
0.02 0.03 0.02 0.02 0.03 0.02 0.02 0.01 0.01 0.02 0.02 0.01 0.02 0.02 0.02 0.02 0.02 0.02 0.02 0.03 0.02 0.01 0.01 0.01 0.02 0.01 0.02 0.01 0.01 0.01 0.01 0.02 0.03 0.03 0.05 0.07 0.09 0.11 0.12 0.12 0.13 0.09 0.06 0.05 0.05 0.04 0.04 0.03 0.03
0.02 0.04 0.03 0.03 0.03 0.03 0.02 0.01 0.01 0.02 0.02 0.01 0.01 0.02 0.02 0.02 0.02 0.01 0.01 0.02 0.01 0.01 0.01 0.01 0.02 0.02 0.02 0.01 0.01 0.01 0.01 0.01 0.02 0.02 0.02 0.03 0.05 0.06 0.08 0.09 0.10 0.09 0.06 0.04 0.04 0.04 0.03 0.03 0.03
0.01 0.02 0.03 0.04 0.03 0.02 0.02 0.02 0.01 0.01 0.02 0.02 0.02 0.02 0.01 0.01 0.01 0.01 0.01 0.01 0.01 0.00 0.00 0.01 0.01 0.02 0.02 0.01 0.01 0.01 0.00 0.00 0.01 0.02 0.02 0.02 0.03 0.04 0.04 0.05 0.06 0.07 0.06 0.05 0.04 0.03 0.03 0.03 0.03
MSLP
1014.34 1014.16 1013.88 1013.45 1012.86 1012.12 1011.27 1010.39 1009.57 1008.88 1008.36 1008.02 1007.81 1007.66 1007.50 1007.27 1006.95 1006.54 1006.12 1005.78 1005.61 1005.67 1006.00 1006.57 1007.32 1008.15 1008.96 1009.68 1010.26 1010.73 1011.10 1011.44 1011.82 1012.26 1012.76 1013.30 1013.83 1014.31 1014.68 1014.94 1015.11 1015.23 1015.35 1015.52 1015.77 1016.08 1016.44 1016.81 1017.13
1014.28 1013.98 1013.56 1013.00 1012.29 1011.47 1010.60 1009.74 1008.97 1008.35 1007.91 1007.62 1007.43 1007.28 1007.09 1006.82 1006.45 1006.02 1005.60 1005.29 1005.16 1005.29 1005.69 1006.33 1007.14 1008.02 1008.87 1009.63 1010.25 1010.76 1011.18 1011.58 1012.00 1012.48 1013.01 1013.56 1014.09 1014.54 1014.88 1015.11 1015.25 1015.36 1015.49 1015.69 1015.98 1016.34 1016.76 1017.16 1017.51
1014.17 1013.73 1013.16 1012.47 1011.66 1010.79 1009.91 1009.10 1008.41 1007.89 1007.53 1007.31 1007.15 1007.00 1006.78 1006.47 1006.06 1005.61 1005.19 1004.90 1004.83 1005.02 1005.47 1006.17 1007.02 1007.94 1008.82 1009.60 1010.26 1010.80 1011.27 1011.72 1012.19 1012.71 1013.26 1013.82 1014.34 1014.78 1015.10 1015.31 1015.44 1015.55 1015.70 1015.92 1016.24 1016.65 1017.10 1017.55 1017.92
1014.01 1013.45 1012.75 1011.93 1011.05 1010.14 1009.28 1008.53 1007.93 1007.50 1007.22 1007.06 1006.92 1006.77 1006.53 1006.18 1005.75 1005.30 1004.89 1004.64 1004.62 1004.86 1005.37 1006.10 1006.98 1007.91 1008.80 1009.60 1010.28 1010.86 1011.36 1011.85 1012.37 1012.92 1013.50 1014.07 1014.59 1015.02 1015.34 1015.55 1015.70 1015.82 1015.99 1016.24 1016.59 1017.02 1017.50 1017.96 1018.35
1013.83 1013.16 1012.36 1011.45 1010.51 1009.59 1008.76 1008.06 1007.54 1007.18 1006.97 1006.83 1006.71 1006.54 1006.29 1005.93 1005.49 1005.05 1004.69 1004.48 1004.51 1004.80 1005.35 1006.11 1006.99 1007.92 1008.81 1009.61 1010.31 1010.91 1011.45 1011.97 1012.52 1013.10 1013.70 1014.29 1014.82 1015.27 1015.61 1015.84 1016.02 1016.17 1016.37 1016.64 1017.00 1017.44 1017.92 1018.38 1018.78
1013.66 1012.91 1012.04 1011.09 1010.12 1009.21 1008.40 1007.75 1007.27 1006.96 1006.76 1006.63 1006.50 1006.32 1006.04 1005.68 1005.26 1004.86 1004.55 1004.40 1004.49 1004.82 1005.39 1006.15 1007.02 1007.93 1008.81 1009.61 1010.31 1010.93 1011.51 1012.07 1012.65 1013.25 1013.87 1014.48 1015.03 1015.50 1015.87 1016.15 1016.37 1016.57 1016.80 1017.09 1017.45 1017.88 1018.34 1018.78 1019.17
1013.50 1012.73 1011.84 1010.88 1009.93 1009.03 1008.26 1007.64 1007.17 1006.86 1006.65 1006.49 1006.32 1006.10 1005.81 1005.46 1005.07 1004.72 1004.47 1004.39 1004.51 1004.87 1005.44 1006.18 1007.02 1007.90 1008.76 1009.55 1010.27 1010.92 1011.54 1012.14 1012.75 1013.38 1014.01 1014.63 1015.20 1015.70 1016.11 1016.44 1016.72 1016.97 1017.24 1017.54 1017.90 1018.29 1018.71 1019.12 1019.48
1013.38 1012.61 1011.75 1010.84 1009.93 1009.08 1008.34 1007.73 1007.26 1006.91 1006.65 1006.43 1006.21 1005.95 1005.65 1005.31 1004.96 1004.67 1004.47 1004.43 1004.58 1004.93 1005.47 1006.16 1006.95 1007.79 1008.62 1009.42 1010.16 1010.86 1011.53 1012.18 1012.83 1013.48 1014.12 1014.74 1015.32 1015.84 1016.29 1016.67 1017.01 1017.32 1017.63 1017.95 1018.30 1018.66 1019.03 1019.39 1019.71
1013.28 1012.56 1011.77 1010.93 1010.10 1009.32 1008.62 1008.02 1007.53 1007.13 1006.79 1006.50 1006.21 1005.91 1005.59 1005.27 1004.97 1004.72 1004.57 1004.56 1004.70 1005.01 1005.48 1006.09 1006.80 1007.58 1008.38 1009.19 1009.98 1010.74 1011.48 1012.19 1012.88 1013.55 1014.20 1014.81 1015.38 1015.91 1016.38 1016.81 1017.21 1017.58 1017.94 1018.29 1018.63 1018.97 1019.30 1019.60 1019.88
1013.19 1012.55 1011.86 1011.13 1010.40 1009.70 1009.04 1008.45 1007.93 1007.47 1007.06 1006.69 1006.33 1006.00 1005.68 1005.38 1005.12 1004.91 1004.79 1004.77 1004.87 1005.10 1005.47 1005.96 1006.58 1007.28 1008.06 1008.88 1009.72 1010.56 1011.38 1012.17 1012.91 1013.60 1014.25 1014.84 1015.39 1015.91 1016.40 1016.87 1017.32 1017.75 1018.17 1018.56 1018.92 1019.25 1019.54 1019.80 1020.04
1013.08 1012.55 1011.97 1011.36 1010.75 1010.13 1009.53 1008.95 1008.39 1007.88 1007.39 1006.95 1006.55 1006.19 1005.88 1005.61 1005.39 1005.22 1005.10 1005.06 1005.09 1005.21 1005.45 1005.81 1006.31 1006.93 1007.67 1008.50 1009.40 1010.32 1011.24 1012.11 1012.91 1013.63 1014.27 1014.84 1015.36 1015.86 1016.35 1016.84 1017.34 1017.84 1018.32 1018.77 1019.17 1019.51 1019.79 1020.03 1020.24
1012.95 1012.52 1012.06 1011.57 1011.06 1010.52 1009.97 1009.39 1008.81 1008.24 1007.70 1007.21 1006.78 1006.42 1006.13 1005.90 1005.73 1005.59 1005.47 1005.39 1005.34 1005.35 1005.44 1005.66 1006.03 1006.56 1007.26 1008.10 1009.05 1010.05 1011.06 1012.01 1012.87 1013.62 1014.26 1014.81 1015.30 1015.77 1016.25 1016.76 1017.30 1017.86 1018.42 1018.93 1019.39 1019.77 1020.07 1020.31 1020.50
1012.78 1012.44 1012.08 1011.70 1011.27 1010.79 1010.26 1009.68 1009.07 1008.46 1007.88 1007.36 1006.92 1006.57 1006.32 1006.14 1006.02 1005.92 1005.81 1005.70 1005.58 1005.48 1005.45 1005.52 1005.77 1006.22 1006.87 1007.71 1008.70 1009.77 1010.86 1011.89 1012.81 1013.59 1014.23 1014.77 1015.23 1015.68 1016.14 1016.66 1017.23 1017.85 1018.47 1019.07 1019.60 1020.03 1020.37 1020.62 1020.81
1012.58 1012.31 1012.03 1011.71 1011.32 1010.86 1010.33 1009.72 1009.08 1008.43 1007.82 1007.28 1006.85 1006.53 1006.33 1006.21 1006.15 1006.10 1006.02 1005.89 1005.73 1005.56 1005.44 1005.42 1005.57 1005.94 1006.55 1007.38 1008.39 1009.51 1010.65 1011.74 1012.72 1013.53 1014.19 1014.72 1015.17 1015.59 1016.04 1016.56 1017.16 1017.81 1018.50 1019.16 1019.76 1020.26 1020.65 1020.94 1021.14
1012.38 1012.16 1011.90 1011.59 1011.21 1010.73 1010.15 1009.51 1008.82 1008.13 1007.49 1006.94 1006.52 1006.24 1006.09 1006.03 1006.03 1006.04 1006.00 1005.90 1005.74 1005.56 1005.39 1005.33 1005.43 1005.75 1006.33 1007.14 1008.15 1009.29 1010.47 1011.60 1012.61 1013.46 1014.13 1014.67 1015.12 1015.53 1015.98 1016.49 1017.09 1017.77 1018.48 1019.19 1019.85 1020.41 1020.85 1021.18 1021.41
1012.22 1012.00 1011.73 1011.38 1010.94 1010.40 1009.77 1009.06 1008.32 1007.59 1006.93 1006.38 1005.97 1005.71 1005.59 1005.58 1005.64 1005.70 1005.72 1005.68 1005.57 1005.42 1005.29 1005.24 1005.34 1005.65 1006.21 1007.00 1008.00 1009.13 1010.31 1011.46 1012.49 1013.37 1014.08 1014.64 1015.10 1015.52 1015.96 1016.46 1017.05 1017.72 1018.43 1019.16 1019.84 1020.43 1020.92 1021.28 1021.54
1012.12 1011.86 1011.53 1011.10 1010.58 1009.95 1009.24 1008.47 1007.68 1006.92 1006.24 1005.68 1005.28 1005.03 1004.92 1004.93 1005.01 1005.12 1005.20 1005.23 1005.21 1005.15 1005.10 1005.12 1005.28 1005.63 1006.19 1006.97 1007.94 1009.04 1010.20 1011.33 1012.37 1013.27 1014.01 1014.61 1015.11 1015.55 1015.99 1016.48 1017.04 1017.67 1018.35 1019.05 1019.72 1020.32 1020.82 1021.22 1021.51
1012.10 1011.75 1011.32 1010.79 1010.16 1009.44 1008.66 1007.83 1007.02 1006.25 1005.58 1005.02 1004.61 1004.34 1004.22 1004.20 1004.27 1004.39 1004.51 1004.61 1004.68 1004.75 1004.83 1004.97 1005.23 1005.65 1006.24 1007.02 1007.95 1009.01 1010.12 1011.22 1012.26 1013.17 1013.95 1014.60 1015.14 1015.62 1016.07 1016.55 1017.07 1017.64 1018.26 1018.89 1019.51 1020.09 1020.58 1020.99 1021.30
1012.14 1011.69 1011.13 1010.48 1009.74 1008.94 1008.11 1007.27 1006.47 1005.74 1005.09 1004.55 1004.13 1003.83 1003.65 1003.56 1003.57 1003.64 1003.75 1003.89 1004.05 1004.25 1004.48 1004.77 1005.17 1005.68 1006.32 1007.11 1008.01 1009.01 1010.07 1011.13 1012.14 1013.07 1013.89 1014.59 1015.20 1015.72 1016.20 1016.67 1017.14 1017.64 1018.17 1018.72 1019.26 1019.78 1020.25 1020.64 1020.97
1012.23 1011.64 1010.95 1010.18 1009.35 1008.50 1007.67 1006.88 1006.14 1005.49 1004.92 1004.42 1004.00 1003.65 1003.37 1003.17 1003.05 1003.01 1003.05 1003.18 1003.40 1003.69 1004.06 1004.52 1005.06 1005.68 1006.40 1007.20 1008.08 1009.03 1010.02 1011.03 1012.01 1012.95 1013.81 1014.58 1015.26 1015.85 1016.36 1016.83 1017.27 1017.70 1018.13 1018.58 1019.03 1019.47 1019.88 1020.26 1020.59
1012.33 1011.59 1010.77 1009.90 1009.01 1008.17 1007.39 1006.70 1006.10 1005.59 1005.13 1004.70 1004.29 1003.89 1003.49 1003.13 1002.83 1002.62 1002.53 1002.58 1002.79 1003.14 1003.62 1004.21 1004.89 1005.63 1006.42 1007.25 1008.12 1009.03 1009.96 1010.91 1011.87 1012.81 1013.71 1014.55 1015.30 1015.96 1016.53 1017.01 1017.43 1017.80 1018.15 1018.50 1018.85 1019.21 1019.57 1019.92 1020.24
1012.43 1011.55 1010.61 1009.66 1008.77 1007.97 1007.30 1006.77 1006.36 1006.03 1005.73 1005.41 1005.03 1004.57 1004.04 1003.49 1002.96 1002.53 1002.24 1002.16 1002.29 1002.63 1003.17 1003.85 1004.65 1005.49 1006.36 1007.23 1008.10 1008.98 1009.86 1010.77 1011.70 1012.64 1013.57 1014.47 1015.30 1016.03 1016.66 1017.18 1017.60 1017.94 1018.23 1018.50 1018.77 1019.05 1019.35 1019.67 1019.97
1012.55 1011.54 1010.51 1009.53 1008.65 1007.94 1007.42 1007.08 1006.89 1006.78 1006.66 1006.46 1006.12 1005.62 1004.96 1004.21 1003.44 1002.75 1002.22 1001.94 1001.94 1002.22 1002.75 1003.49 1004.35 1005.28 1006.22 1007.13 1008.01 1008.87 1009.72 1010.59 1011.49 1012.43 1013.39 1014.33 1015.23 1016.04 1016.74 1017.30 1017.74 1018.07 1018.33 1018.55 1018.76 1018.99 1019.24 1019.53 1019.81
1012.73 1011.64 1010.55 1009.56 1008.73 1008.13 1007.77 1007.63 1007.66 1007.76 1007.83 1007.75 1007.46 1006.92 1006.15 1005.21 1004.20 1003.24 1002.46 1001.95 1001.77 1001.93 1002.41 1003.14 1004.04 1005.01 1006.00 1006.95 1007.84 1008.69 1009.52 1010.37 1011.25 1012.18 1013.15 1014.13 1015.08 1015.95 1016.71 1017.33 1017.81 1018.16 1018.41 1018.61 1018.79 1018.98 1019.20 1019.46 1019.73
1013.06 1011.92 1010.82 1009.85 1009.09 1008.60 1008.39 1008.43 1008.64 1008.93 1009.15 1009.18 1008.93 1008.36 1007.49 1006.39 1005.16 1003.96 1002.92 1002.18 1001.80 1001.80 1002.18 1002.85 1003.74 1004.72 1005.74 1006.71 1007.62 1008.47 1009.29 1010.11 1010.98 1011.89 1012.86 1013.86 1014.84 1015.76 1016.57 1017.24 1017.76 1018.14 1018.42 1018.62 1018.79 1018.97 1019.18 1019.42 1019.67
1013.61 1012.47 1011.40 1010.48 1009.80 1009.40 1009.30 1009.47 1009.82 1010.23 1010.54 1010.65 1010.43 1009.84 1008.89 1007.65 1006.25 1004.84 1003.59 1002.62 1002.03 1001.87 1002.10 1002.67 1003.50 1004.46 1005.46 1006.44 1007.36 1008.21 1009.03 1009.84 1010.68 1011.58 1012.54 1013.54 1014.53 1015.47 1016.31 1017.02 1017.59 1018.01 1018.31 1018.54 1018.72 1018.91 1019.11 1019.34 1019.58
1014.43 1013.36 1012.36 1011.51 1010.90 1010.57 1010.54 1010.77 1011.17 1011.62 1011.98 1012.10 1011.88 1011.27 1010.26 1008.94 1007.41 1005.85 1004.42 1003.27 1002.49 1002.14 1002.21 1002.65 1003.37 1004.26 1005.22 1006.18 1007.09 1007.94 1008.75 1009.56 1010.39 1011.27 1012.21 1013.18 1014.16 1015.10 1015.95 1016.69 1017.28 1017.74 1018.08 1018.34 1018.55 1018.75 1018.95 1019.17 1019.41
1015.53 1014.58 1013.68 1012.92 1012.37 1012.09 1012.07 1012.29 1012.68 1013.10 1013.42 1013.51 1013.26 1012.62 1011.58 1010.21 1008.62 1006.96 1005.41 1004.11 1003.16 1002.64 1002.53 1002.80 1003.38 1004.16 1005.04 1005.95 1006.83 1007.67 1008.48 1009.28 1010.10 1010.96 1011.87 1012.82 1013.77 1014.69 1015.53 1016.27 1016.88 1017.36 1017.73 1018.02 1018.26 1018.48 1018.69 1018.92 1019.15
1016.85 1016.05 1015.29 1014.64 1014.15 1013.88 1013.84 1014.00 1014.29 1014.62 1014.84 1014.86 1014.55 1013.87 1012.82 1011.43 1009.83 1008.14 1006.52 1005.12 1004.04 1003.34 1003.05 1003.14 1003.54 1004.17 1004.94 1005.76 1006.60 1007.42 1008.22 1009.02 1009.83 1010.68 1011.56 1012.47 1013.39 1014.27 1015.08 1015.80 1016.42 1016.91 1017.31 1017.63 1017.89 1018.13 1018.36 1018.59 1018.82
1018.27 1017.65 1017.04 1016.49 1016.07 1015.80 1015.71 1015.77 1015.94 1016.12 1016.22 1016.12 1015.74 1015.03 1013.97 1012.61 1011.02 1009.35 1007.71 1006.24 1005.05 1004.20 1003.73 1003.62 1003.83 1004.28 1004.90 1005.62 1006.39 1007.18 1007.97 1008.77 1009.59 1010.43 1011.29 1012.17 1013.04 1013.88 1014.66 1015.35 1015.95 1016.45 1016.86 1017.20 1017.49 1017.75 1018.00 1018.24 1018.47
Thickness
5689 5693 5697 5696 5693 5691 5697 5708 5713 5713 5716 5722 5725 5728 5730 5729 5726 5722 5728 5735 5737 5737 5737 5735 5736 5737 5737 5738 5738 5738 5738 5738 5738 5738 5737 5737 5736 5736 5736 5735 5735 5735 5734 5733 5733 5732 5731 5730 5729
5682 5686 5686 5685 5683 5684 5694 5705 5703 5708 5711 5713 5715 5719 5721 5720 5722 5721 5723 5727 5730 5731 5731 5731 5731 5732 5733 5734 5734 5734 5734 5734 5734 5734 5734 5733 5733 5732 5732 5732 5731 5731 5730 5730 5729 5728 5727 5726 5725
5673 5676 5674 5673 5675 5687 5694 5697 5700 5701 5702 5704 5705 5710 5712 5711 5713 5714 5717 5721 5724 5725 5725 5725 5725 5727 5728 5729 5729 5730 5730 5730 5730 5730 5730 5729 5729 5729 5728 5728 5727 5727 5726 5726 5725 5724 5723 5722 5721
5663 5662 5662 5662 5670 5683 5688 5688 5690 5691 5692 5695 5699 5698 5702 5703 5705 5708 5711 5714 5717 5718 5719 5719 5720 5721 5722 5724 5724 5725 5725 5725 5726 5726 5725 5725 5725 5724 5724 5723 5723 5722 5722 5721 5721 5720 5719 5718 5716
5652 5651 5648 5653 5665 5674 5677 5679 5680 5682 5684 5687 5690 5691 5691 5694 5698 5700 5703 5707 5709 5711 5712 5712 5713 5715 5716 5717 5718 5719 5720 5720 5721 5721 5721 5721 5720 5719 5719 5719 5718 5718 5717 5717 5716 5715 5714 5713 5712
5638 5641 5642 5648 5658 5662 5665 5668 5670 5673 5676 5677 5680 5682 5683 5686 5688 5691 5695 5698 5700 5702 5704 5705 5706 5708 5709 5711 5712 5713 5714 5715 5715 5715 5715 5715 5715 5715 5714 5714 5713 5713 5712 5712 5711 5710 5709 5708 5707
5628 5631 5637 5645 5648 5650 5653 5658 5661 5664 5666 5669 5673 5673 5674 5676 5678 5681 5685 5689 5691 5693 5696 5697 5699 5700 5701 5703 5705 5706 5707 5708 5709 5710 5710 5710 5710 5710 5709 5708 5708 5707 5707 5707 5706 5705 5704 5703 5702
5622 5623 5627 5633 5637 5640 5644 5646 5650 5654 5656 5659 5662 5664 5664 5665 5668 5672 5676 5679 5682 5684 5686 5689 5691 5693 5694 5696 5697 5699 5700 5701 5702 5703 5704 5704 5704 5704 5703 5703 5702 5702 5702 5701 5700 5700 5699 5698 5696
5611 5611 5617 5624 5627 5630 5633 5634 5637 5642 5645 5645 5648 5654 5657 5656 5658 5662 5665 5669 5672 5674 5677 5680 5683 5685 5687 5688 5689 5691 5692 5693 5695 5696 5697 5698 5699 5699 5698 5697 5697 5696 5696 5696 5695 5694 5694 5692 5691
5599 5602 5610 5616 5620 5621 5622 5625 5627 5630 5633 5634 5636 5639 5643 5645 5649 5653 5656 5659 5662 5665 5668 5671 5674 5677 5679 5680 5682 5684 5685 5686 5688 5690 5691 5692 5694 5694 5693 5691 5691 5691 5691 5690 5689 5689 5688 5688 5688
5589 5593 5599 5603 5607 5610 5610 5613 5617 5622 5624 5629 5630 5630 5632 5635 5639 5643 5647 5650 5652 5655 5658 5661 5664 5667 5670 5673 5675 5677 5678 5680 5682 5683 5685 5686 5687 5687 5687 5687 5686 5686 5685 5686 5684 5685 5685 5684 5683
5579 5582 5588 5592 5594 5596 5600 5603 5606 5609 5614 5619 5621 5622 5623 5625 5629 5633 5636 5639 5643 5645 5648 5651 5655 5658 5662 5664 5667 5670 5672 5673 5674 5675 5677 5680 5680 5680 5681 5681 5681 5681 5681 5681 5680 5680 5679 5678 5677
5571 5572 5576 5579 5583 5586 5588 5592 5596 5598 5603 5607 5610 5611 5614 5617 5620 5623 5626 5630 5633 5636 5639 5642 5646 5650 5653 5656 5658 5661 5664 5665 5666 5668 5669 5672 5673 5674 5674 5674 5674 5675 5675 5675 5675 5674 5673 5673 5671
5564 5566 5568 5571 5575 5577 5579 5582 5586 5590 5594 5597 5600 5602 5605 5607 5610 5613 5615 5619 5623 5627 5630 5633 5637 5640 5643 5647 5649 5653 5655 5656 5659 5660 5662 5663 5665 5665 5667 5667 5667 5668 5668 5668 5668 5668 5667 5666 5665
5557 5559 5562 5564 5567 5570 5574 5574 5579 5584 5586 5589 5591 5594 5595 5598 5600 5603 5606 5609 5613 5617 5621 5624 5628 5631 5634 5637 5640 5644 5647 5649 5650 5652 5653 5655 5657 5659 5659 5660 5660 5661 5661 5661 5661 5660 5660 5659 5657
5552 5554 5556 5559 5561 5564 5567 5571 5573 5577 5578 5582 5585 5587 5587 5589 5592 5594 5597 5600 5603 5607 5611 5615 5619 5622 5625 5627 5631 5634 5637 5640 5641 5643 5645 5647 5649 5650 5651 5652 5653 5653 5653 5653 5653 5653 5653 5652 5651
5548 5549 5551 5555 5557 5560 5562 5564 5566 5569 5571 5576 5578 5581 5581 5582 5584 5586 5589 5591 5594 5598 5602 5606 5609 5612 5615 5617 5621 5624 5627 5630 5632 5634 5636 5638 5641 5641 5643 5644 5645 5645 5645 5645 5645 5645 5645 5644 5643
5540 5544 5547 5550 5553 5554 5557 5558 5561 5563 5565 5569 5572 5573 5575 5576 5577 5578 5580 5582 5584 5589 5593 5596 5599 5602 5605 5608 5611 5614 5617 5620 5622 5624 5626 5629 5632 5633 5634 5635 5636 5636 5637 5637 5638 5637 5636 5635 5634
5534 5536 5541 5546 5547 5546 5551 5553 5556 5557 5557 5561 5565 5566 5567 5568 5569 5571 5572 5574 5576 5580 5584 5587 5590 5592 5596 5599 5602 5604 5607 5610 5613 5614 5616 5619 5622 5624 5626 5627 5628 5628 5628 5629 5629 5629 5628 5626 5625
5530 5533 5536 5540 5541 5541 5543 5547 5551 5551 5552 5555 5556 5558 5559 5560 5562 5563 5565 5567 5569 5571 5575 5579 5582 5584 5586 5588 5592 5595 5598 5600 5603 5604 5606 5609 5612 5615 5617 5619 5619 5619 5619 5620 5620 5620 5619 5618 5617
5529 5530 5531 5532 5534 5537 5538 5546 5547 5545 5546 5548 5549 5551 5552 5554 5555 5557 5558 5560 5562 5564 5567 5570 5572 5575 5577 5579 5582 5585 5588 5591 5594 5596 5598 5600 5602 5605 5608 5609 5610 5610 5611 5611 5611 5610 5610 5610 5609
5525 5526 5524 5527 5534 5536 5535 5542 5548 5545 5543 5543 5544 5545 5546 5548 5549 5551 5552 5554 5556 5557 5559 5562 5564 5565 5567 5570 5574 5578 5581 5584 5586 5588 5589 5591 5592 5595 5597 5599 5600 5601 5602 5602 5602 5602 5601 5601 5601
5519 5520 5522 5525 5529 5528 5532 5533 5546 5542 5541 5542 5542 5541 5541 5542 5543 5544 5545 5546 5548 5549 5551 5553 5555 5557 5559 5562 5565 5569 5572 5574 5576 5579 5581 5583 5584 5586 5587 5589 5591 5591 5592 5593 5593 5592 5592 5592 5592
5513 5518 5522 5522 5526 5523 5527 5533 5539 5537 5535 5538 5538 5537 5535 5536 5537 5537 5538 5539 5540 5541 5543 5544 5547 5549 5550 5553 5557 5560 5563 5565 5567 5570 5572 5574 5575 5577 5578 5580 5581 5582 5583 5583 5584 5583 5583 5583 5583
5512 5518 5523 5525 5525 5528 5521 5524 5530 5530 5529 5529 5531 5531 5530 5530 5530 5531 5531 5532 5533 5533 5535 5536 5538 5540 5542 5545 5548 5551 5553 5556 5558 5561 5563 5566 5567 5569 5570 5571 5572 5572 5573 5574 5574 5575 5575 5575 5575
5506 5510 5513 5519 5527 5530 5518 5520 5526 5520 5520 5521 5522 5522 5523 5523 5523 5524 5524 5525 5526 5526 5527 5528 5531 5532 5534 5537 5540 5542 5544 5547 5549 5551 5554 5556 5558 5560 5560 5561 5562 5563 5563 5565 5566 5567 5567 5567 5567
5499 5502 5499 5503 5507 5509 5519 5516 5516 5515 5513 5513 5514 5514 5514 5514 5515 5516 5516 5518 5519 5519 5520 5522 5523 5524 5526 5528 5531 5534 5536 5538 5540 5542 5544 5546 5548 5550 5550 5552 5553 5554 5554 5554 5556 5558 5559 5559 5559
5492 5493 5494 5499 5504 5515 5519 5515 5516 5510 5507 5506 5505 5505 5505 5504 5505 5506 5508 5510 5511 5512 5513 5514 5515 5517 5517 5519 5522 5525 5527 5529 5531 5533 5535 5537 5539 5540 5541 5544 5545 5545 5545 5546 5546 5548 5549 5550 5551
5483 5483 5487 5492 5494 5507 5512 5514 5504 5499 5497 5497 5497 5495 5495 5495 5496 5497 5499 5501 5502 5504 5505 5506 5507 5508 5510 5512 5514 5516 5519 5520 5522 5524 5527 5529 5530 5531 5532 5534 5535 5536 5537 5538 5538 5539 5540 5541 5541
5478 5480 5481 5488 5487 5488 5500 5501 5493 5489 5487 5487 5487 5487 5486 5487 5488 5488 5490 5491 5492 5494 5496 5497 5498 5500 5502 5503 5505 5507 5510 5511 5513 5516 5518 5519 5521 5522 5523 5525 5526 5527 5528 5529 5530 5530 5531 5531 5532